Wind_Speed
28 28 28 28 28 28 28 27 26 22 19 16 15 14 14 14 13 12 12 11 11 11 11 10 10 11 11 11 11 12 13 13 14 16 17 18 19 20 21 22 24 25 25 26
28 27 29 28 27 27 28 28 27 23 20 18 17 16 16 15 14 14 13 12 12 12 12 12 12 13 14 14 14 14 14 15 16 17 18 19 20 21 21 23 25 26 27 28
25 25 27 27 25 26 27 27 26 24 21 20 18 18 17 16 15 15 15 14 14 14 14 14 14 15 16 16 16 16 16 16 17 19 20 21 21 22 22 24 26 27 28 29
24 25 26 22 22 24 25 25 24 23 22 21 19 19 18 17 17 17 17 16 15 15 16 16 16 17 17 18 18 18 18 19 20 21 22 23 24 24 25 26 27 29 30 31
23 23 23 21 21 22 23 24 24 24 23 22 20 20 18 17 17 18 18 19 19 18 18 17 18 19 19 19 20 20 20 21 22 23 24 26 27 28 28 29 29 30 32 32
21 22 21 19 19 21 22 23 22 23 23 22 22 21 20 19 19 20 19 20 20 21 21 20 20 21 21 21 21 22 23 24 25 26 27 27 28 29 30 31 32 32 33 34
18 19 19 18 19 20 21 20 20 22 23 22 22 22 21 21 22 22 22 21 21 21 21 21 21 21 22 22 23 24 25 26 26 27 28 29 30 30 30 31 33 34 34 34
17 18 17 17 18 19 18 18 19 20 20 21 21 22 22 22 22 22 22 21 21 21 22 22 22 22 23 24 25 26 26 27 28 28 29 30 31 31 31 31 32 33 34 35
15 16 16 16 17 17 17 17 17 19 19 19 19 20 21 21 21 21 21 21 22 22 23 23 24 24 24 24 25 26 26 27 27 28 29 30 31 31 32 32 33 34 34 35
13 13 13 13 14 15 15 15 16 17 19 19 19 20 20 20 20 21 22 22 22 23 23 23 24 24 25 25 25 25 26 27 28 29 29 30 30 31 33 34 34 35 36 37
11 11 12 12 13 13 14 15 16 17 17 18 18 20 19 19 19 20 21 21 21 21 21 22 23 24 24 25 26 26 27 28 29 30 30 31 32 33 34 35 36 36 37 38
10 10 11 12 13 14 14 15 16 16 16 16 16 16 18 18 19 19 19 19 19 19 20 21 22 23 24 25 26 27 28 29 30 31 32 33 34 35 35 36 37 38 40 41
9 8 9 10 11 12 13 13 14 15 15 15 15 16 16 17 18 18 18 18 19 19 20 21 22 23 24 26 27 29 30 31 32 33 34 35 36 37 38 39 40 41 42 43
9 9 10 9 9 9 10 10 10 11 12 13 14 14 14 15 16 17 18 18 18 19 21 22 23 24 26 27 28 30 32 33 34 35 36 37 38 39 40 41 42 43 45 46
8 8 8 9 8 9 9 10 10 10 10 11 12 13 14 15 17 17 17 18 19 20 21 22 24 25 26 28 29 31 32 33 35 36 38 39 40 41 42 44 45 46 47 47
8 7 7 7 7 8 8 9 9 10 10 11 12 12 13 14 15 16 17 19 20 21 23 24 26 27 28 30 31 33 34 36 37 39 40 41 42 43 44 45 46 47 48 48
9 8 7 8 8 8 8 9 9 9 9 10 11 12 13 14 15 17 18 20 21 22 24 26 27 29 30 32 34 35 37 38 39 40 41 42 43 44 45 46 46 47 47 47
10 9 9 9 9 10 10 9 9 10 10 11 12 14 15 16 17 18 20 21 23 24 26 28 30 32 34 35 37 38 39 40 41 42 43 44 44 45 45 46 46 47 46 46
11 11 11 10 11 11 11 11 11 12 13 14 15 16 17 18 19 21 23 25 26 28 30 32 34 35 36 37 38 39 41 42 43 43 43 44 44 45 45 45 45 45 44 44
12 12 12 12 12 12 13 13 14 15 16 17 18 19 20 21 22 24 26 28 30 32 33 35 36 37 38 39 40 40 41 41 42 42 43 43 43 43 43 43 42 42 42 43
14 13 13 13 13 14 14 15 16 17 18 19 20 22 23 25 26 28 30 32 33 34 35 36 37 38 39 39 39 39 40 40 41 41 41 41 41 40 40 40 40 40 40 40
14 14 13 14 14 15 16 17 18 19 21 22 23 25 26 28 29 31 32 33 34 35 36 37 37 38 38 38 38 39 39 39 39 39 39 38 38 38 38 38 38 38 38 38
15 15 15 15 16 17 18 19 20 22 23 24 26 27 29 30 31 32 33 34 35 36 37 37 37 37 37 37 37 37 37 37 37 37 36 36 36 36 35 35 35 36 36 36
15 16 16 17 18 18 19 20 22 23 25 26 28 28 29 30 32 33 34 35 36 36 36 36 35 35 35 35 34 35 35 35 35 34 34 34 33 33 33 33 33 32 32 31
17 17 18 19 20 21 22 23 24 25 27 28 28 29 30 31 32 33 34 34 34 34 34 34 34 34 34 34 34 33 33 33 32 32 31 31 30 30 30 29 28 27 26 25
18 18 19 20 21 22 23 25 26 27 27 28 29 30 31 32 32 32 32 33 33 33 33 33 33 33 32 31 31 31 30 30 30 29 28 28 27 27 26 25 25 24 23 22
18 19 20 21 23 24 25 26 26 27 28 29 30 31 31 31 31 32 32 32 32 32 32 31 30 29 28 28 28 28 27 27 26 26 25 24 24 23 23 22 22 21 20 18
Wind_Direction
259 255 252 250 249 251 253 254 256 255 255 257 256 255 258 261 263 260 259 260 253 248 247 245 241 236 232 231 229 229 229 230 231 233 236 239 238 240 244 245 246 247 249 250
258 255 252 251 250 251 250 251 253 253 253 255 254 253 255 258 259 253 249 250 246 247 245 245 240 236 234 234 235 236 236 238 238 239 242 243 245 247 249 250 250 252 253 253
256 253 252 251 252 252 251 251 250 249 251 252 251 253 251 249 252 252 246 243 243 246 244 244 243 239 238 240 242 242 243 243 244 246 248 250 252 254 256 258 257 257 258 259
255 251 253 254 252 252 251 248 247 247 247 248 250 249 246 247 250 247 241 243 246 246 245 246 243 242 242 245 246 246 248 250 250 251 253 255 256 257 259 261 261 260 261 263
254 252 254 253 252 251 251 248 248 245 245 246 246 245 243 247 249 246 243 242 245 246 245 245 247 247 248 250 251 253 254 255 255 256 258 259 259 258 260 263 265 267 267 268
252 253 255 251 252 252 251 248 246 244 245 244 243 244 245 246 248 244 241 243 246 247 245 246 249 249 247 249 253 256 258 259 259 260 261 262 263 264 264 265 266 269 271 272
250 251 252 251 252 252 248 246 245 243 242 240 239 241 245 249 247 243 240 242 245 248 248 250 251 250 249 252 257 259 260 261 262 263 263 266 266 266 266 266 268 270 272 272
249 249 249 250 251 249 246 244 242 239 235 235 237 239 243 246 246 244 242 241 243 247 250 252 251 252 253 256 259 260 262 264 265 266 267 270 270 269 268 271 271 273 274 274
246 247 248 247 246 243 243 240 236 233 231 236 235 235 238 241 244 242 240 243 246 248 251 250 250 252 255 258 261 263 265 266 268 269 271 272 272 273 273 274 275 276 276 275
244 242 241 240 239 240 240 235 230 228 231 233 234 235 238 240 242 241 240 244 247 249 252 250 250 253 257 261 265 267 267 269 271 272 274 275 276 277 276 276 277 277 277 277
242 237 235 233 231 231 233 231 228 229 231 232 234 235 237 242 244 245 247 248 250 251 253 255 255 257 260 265 268 270 271 274 277 278 279 280 280 280 279 278 279 278 277 277
235 230 228 229 230 230 229 226 224 224 224 228 231 236 237 240 243 248 251 251 252 254 256 258 260 263 267 270 273 275 277 278 279 280 281 282 281 281 281 280 280 280 280 280
225 221 225 226 222 222 222 225 224 224 227 231 234 240 242 244 248 249 251 255 257 258 261 264 266 270 273 275 277 279 280 281 282 282 282 282 282 282 282 282 282 282 282 282
227 227 230 227 221 216 216 218 223 228 230 234 238 241 244 244 246 250 253 257 260 263 267 269 272 275 277 278 280 282 282 283 283 283 283 283 283 284 284 284 284 285 285 285
219 221 224 224 220 219 224 226 227 228 231 238 241 239 242 246 251 253 258 263 268 272 274 276 278 280 281 282 283 284 285 285 285 285 285 286 286 286 286 286 286 286 287 287
217 212 211 213 217 221 227 227 229 233 238 241 243 246 253 258 261 264 269 272 274 276 278 280 282 284 284 285 285 286 287 287 288 288 288 288 288 288 288 288 288 288 288 288
231 230 230 230 233 236 234 236 243 247 250 254 255 258 263 270 273 274 275 277 278 281 283 284 286 288 288 288 289 289 289 289 289 290 290 290 290 290 290 290 290 289 289 289
235 237 236 239 242 243 245 248 253 255 255 258 262 267 273 277 280 281 282 284 285 286 288 288 289 290 291 291 290 290 290 291 291 291 292 292 292 292 291 290 290 290 290 290
233 234 237 245 248 249 255 259 262 263 265 269 274 277 279 281 283 285 287 288 289 290 291 291 291 291 291 291 292 291 291 291 292 292 293 293 293 293 293 293 293 293 293 293
234 238 244 251 253 255 259 262 268 272 274 276 279 281 284 286 288 289 290 291 291 291 291 291 291 292 292 292 292 292 292 292 293 294 294 294 294 294 295 295 295 295 295 295
238 243 247 251 255 258 261 265 269 272 275 277 280 283 285 287 289 291 292 293 293 292 292 292 292 293 293 293 293 293 294 294 294 294 295 295 295 296 296 297 297 297 297 297
245 247 250 254 257 261 265 268 271 274 276 280 284 286 287 289 290 292 293 293 294 294 294 294 294 295 295 295 295 295 295 295 295 295 296 296 296 297 298 298 298 298 298 299
246 249 254 258 260 265 270 273 276 279 282 284 286 288 290 291 292 293 294 294 295 296 296 296 296 296 296 296 295 295 295 296 296 297 297 298 298 299 300 300 300 300 300 300
247 252 257 262 267 272 275 278 281 283 285 287 288 290 291 292 293 294 295 295 296 297 297 297 297 297 297 297 297 297 298 298 298 298 298 299 299 300 301 302 303 303 304 304
253 259 262 268 273 277 279 282 285 286 287 288 289 291 292 294 295 296 296 297 297 298 298 298 298 298 298 297 298 299 299 300 300 299 299 300 301 302 304 305 307 308 308 308
259 263 267 272 276 280 282 283 285 286 288 290 292 293 295 295 296 297 299 299 299 300 300 300 300 300 300 299 300 300 300 301 301 301 302 302 303 304 306 307 309 311 311 312
266 269 273 276 278 280 283 286 288 289 291 292 293 294 295 296 297 298 300 300 300 300 301 301 302 302 302 302 302 302 303 303 303 303 304 305 305 306 308 310 311 313 315 316
Height
5777 5780 5782 5784 5787 5789 5791 5793 5795 5798 5801 5803 5804 5805 5805 5806 5807 5807 5808 5809 5809 5810 5811 5812 5812 5813 5814 5815 5817 5818 5819 5820 5821 5823 5824 5825 5826 5828 5829 5830 5831 5832 5834 5834
5770 5772 5774 5777 5780 5782 5784 5787 5789 5792 5796 5798 5799 5800 5801 5802 5802 5803 5804 5805 5806 5807 5808 5809 5810 5811 5812 5813 5814 5815 5816 5818 5819 5820 5821 5822 5823 5824 5824 5825 5826 5827 5828 5828
5762 5765 5766 5769 5773 5775 5777 5780 5783 5786 5790 5792 5794 5795 5796 5797 5798 5799 5800 5801 5803 5803 5804 5805 5806 5808 5809 5810 5811 5812 5813 5814 5815 5816 5817 5818 5819 5819 5819 5820 5820 5821 5821 5822
5756 5759 5760 5766 5767 5769 5771 5773 5776 5779 5783 5786 5787 5789 5791 5793 5794 5795 5796 5797 5799 5799 5800 5801 5802 5803 5805 5806 5807 5808 5809 5810 5811 5812 5813 5813 5813 5814 5814 5814 5814 5814 5814 5814
5750 5752 5755 5759 5761 5762 5764 5766 5769 5772 5776 5778 5781 5783 5785 5787 5789 5790 5792 5793 5794 5795 5796 5797 5798 5799 5800 5801 5802 5803 5804 5805 5805 5806 5806 5806 5807 5807 5807 5807 5807 5806 5806 5806
5745 5747 5750 5754 5755 5756 5758 5760 5763 5765 5768 5771 5774 5777 5779 5781 5783 5784 5786 5787 5788 5790 5791 5792 5793 5794 5795 5796 5797 5798 5798 5799 5798 5799 5799 5799 5799 5799 5799 5799 5798 5797 5797 5797
5740 5742 5744 5747 5748 5750 5753 5756 5757 5759 5761 5764 5767 5770 5773 5774 5776 5778 5779 5781 5782 5783 5785 5785 5787 5788 5789 5791 5791 5791 5792 5791 5791 5792 5792 5792 5791 5790 5790 5790 5789 5788 5787 5787
5736 5738 5742 5741 5742 5744 5746 5748 5750 5753 5755 5758 5761 5763 5766 5768 5770 5771 5773 5774 5776 5777 5778 5779 5780 5782 5783 5784 5784 5784 5784 5785 5784 5784 5784 5784 5783 5782 5782 5781 5780 5780 5779 5778
5732 5735 5735 5736 5737 5738 5740 5742 5745 5747 5750 5752 5755 5757 5759 5762 5763 5765 5767 5768 5770 5771 5772 5773 5774 5775 5776 5777 5777 5776 5777 5777 5777 5776 5776 5775 5774 5774 5773 5772 5771 5770 5769 5768
5728 5729 5730 5731 5732 5734 5735 5738 5740 5743 5745 5747 5749 5751 5754 5756 5757 5759 5760 5762 5764 5765 5766 5766 5767 5769 5769 5769 5769 5769 5769 5769 5769 5768 5767 5767 5766 5765 5764 5763 5761 5760 5759 5757
5724 5725 5726 5727 5728 5730 5731 5734 5736 5738 5740 5743 5745 5747 5748 5750 5752 5753 5755 5756 5757 5758 5759 5760 5761 5762 5762 5762 5762 5762 5761 5761 5760 5759 5758 5757 5756 5755 5754 5752 5751 5749 5748 5746
5722 5723 5724 5724 5725 5726 5728 5730 5732 5734 5736 5738 5740 5742 5743 5745 5746 5748 5749 5750 5751 5752 5753 5754 5755 5755 5755 5755 5754 5754 5753 5752 5751 5750 5749 5748 5746 5745 5743 5741 5740 5738 5736 5734
5719 5720 5721 5721 5722 5723 5725 5726 5728 5730 5732 5734 5736 5737 5738 5740 5742 5743 5744 5745 5746 5747 5748 5748 5748 5748 5748 5747 5747 5746 5745 5744 5743 5741 5740 5738 5736 5734 5732 5730 5727 5725 5723 5720
5716 5718 5718 5719 5720 5721 5722 5724 5725 5727 5728 5730 5731 5733 5734 5735 5737 5738 5739 5739 5740 5741 5741 5741 5741 5741 5740 5739 5738 5737 5736 5734 5733 5731 5729 5727 5725 5723 5720 5718 5715 5712 5709 5706
5714 5715 5716 5717 5718 5720 5721 5722 5723 5725 5726 5727 5728 5729 5730 5731 5732 5733 5733 5734 5734 5735 5735 5734 5734 5733 5732 5731 5730 5728 5726 5724 5723 5721 5718 5716 5713 5710 5707 5704 5701 5698 5695 5692
5712 5713 5714 5715 5717 5718 5719 5720 5722 5723 5724 5725 5726 5727 5727 5728 5728 5729 5729 5729 5729 5728 5728 5727 5727 5726 5724 5723 5721 5719 5717 5714 5712 5709 5706 5703 5700 5697 5694 5691 5687 5684 5680 5677
5710 5711 5712 5714 5715 5716 5717 5718 5719 5720 5721 5722 5723 5723 5723 5724 5724 5724 5724 5723 5723 5722 5721 5720 5719 5717 5715 5713 5711 5709 5706 5703 5700 5697 5694 5691 5687 5684 5680 5677 5673 5669 5666 5662
5707 5709 5710 5711 5712 5713 5714 5715 5716 5717 5718 5718 5719 5719 5719 5719 5719 5718 5718 5717 5716 5715 5713 5712 5710 5708 5706 5703 5701 5698 5695 5692 5689 5686 5682 5678 5675 5671 5667 5663 5659 5655 5651 5648
5704 5706 5707 5708 5709 5710 5711 5712 5713 5713 5714 5714 5714 5714 5714 5713 5713 5712 5711 5710 5708 5706 5705 5703 5700 5698 5695 5693 5690 5687 5684 5680 5677 5673 5669 5665 5662 5658 5654 5649 5645 5641 5638 5634
5701 5702 5704 5705 5706 5706 5707 5708 5708 5709 5709 5709 5709 5708 5708 5707 5706 5705 5703 5702 5700 5697 5695 5693 5690 5687 5685 5681 5678 5675 5672 5668 5664 5661 5657 5653 5649 5645 5641 5637 5633 5629 5625 5621
5697 5699 5700 5701 5702 5702 5703 5703 5703 5704 5703 5703 5703 5702 5701 5700 5699 5697 5695 5693 5691 5688 5685 5683 5680 5676 5673 5670 5666 5663 5660 5656 5652 5649 5645 5641 5637 5633 5629 5625 5621 5617 5613 5609
5693 5694 5695 5696 5697 5697 5697 5698 5698 5698 5697 5697 5696 5695 5694 5692 5690 5688 5686 5684 5681 5678 5675 5672 5668 5665 5661 5658 5654 5651 5647 5644 5640 5637 5633 5630 5626 5622 5618 5614 5610 5606 5602 5598
5688 5689 5690 5691 5691 5691 5691 5691 5691 5691 5690 5689 5688 5687 5685 5683 5681 5679 5677 5674 5670 5667 5664 5660 5656 5653 5650 5646 5643 5639 5636 5632 5629 5626 5622 5619 5615 5611 5607 5603 5599 5596 5591 5587
5683 5684 5685 5685 5685 5685 5685 5685 5684 5683 5682 5681 5680 5678 5676 5674 5672 5669 5666 5663 5660 5657 5653 5649 5646 5642 5639 5636 5632 5629 5625 5622 5618 5615 5612 5608 5605 5601 5598 5594 5590 5586 5582 5578
5679 5679 5679 5679 5679 5679 5679 5678 5677 5676 5674 5673 5671 5669 5667 5665 5662 5659 5656 5653 5649 5646 5642 5639 5635 5632 5629 5625 5622 5619 5615 5612 5609 5605 5602 5599 5596 5592 5589 5585 5582 5578 5575 5571
5673 5673 5673 5673 5673 5672 5671 5670 5669 5668 5666 5664 5662 5660 5657 5655 5652 5649 5646 5643 5639 5636 5633 5629 5626 5622 5619 5616 5612 5609 5606 5603 5600 5596 5593 5590 5587 5584 5581 5578 5575 5572 5569 5566
5667 5667 5667 5666 5666 5665 5664 5662 5661 5659 5657 5655 5653 5650 5648 5645 5642 5640 5636 5633 5630 5627 5623 5620 5617 5613 5610 5607 5604 5601 5598 5595 5592 5589 5586 5583 5580 5577 5575 5572 5569 5567 5564 5561